| time (UTC) | temp C | wind direction | speed KPH | gust KPH | rain 1hr cm | rain 24hr cm | rain mn cm | humidity % | barometer mb |
| 20260902234507 | 31 | 147 | 0.0 | 8.0 | 0.00 | 0.00 | 0.00 | 76 | 1010.4 |
| 20260902233007 | 31 | 173 | 0.0 | 8.0 | 0.00 | 0.00 | 0.00 | 75 | 1010.4 |
| 20260902231506 | 32 | 150 | 1.6 | 8.0 | 0.00 | 0.00 | 0.00 | 73 | 1010.4 |
| 20260902230006 | 32 | 136 | 1.6 | 8.0 | 0.00 | 0.00 | 0.00 | 72 | 1010.3 |
| 20260902224506 | 32 | 144 | 0.0 | 12.9 | 0.00 | 0.00 | 0.00 | 72 | 1010.3 |
| 20260902223007 | 33 | 171 | 3.2 | 14.5 | 0.00 | 0.00 | 0.00 | 71 | 1010.2 |
| 20260902221510 | 33 | 160 | 3.2 | 17.7 | 0.00 | 0.00 | 0.00 | 69 | 1010.2 |
| 20260902220003 | 33 | 145 | 1.6 | 6.4 | 0.00 | 0.00 | 0.00 | 71 | 1010.2 |
| 20260902214509 | 33 | 156 | 1.6 | 4.8 | 0.00 | 0.00 | 0.00 | 72 | 1010.2 |
| 20260902213002 | 32 | 125 | 0.0 | 8.0 | 0.00 | 0.00 | 0.00 | 73 | 1010.3 |
| 20260902211501 | 32 | 132 | 1.6 | 8.0 | 0.00 | 0.00 | 0.00 | 73 | 1010.5 |
| 20260902210100 | 32 | 137 | 1.6 | 6.4 | 0.00 | 0.00 | 0.00 | 72 | 1010.5 |
| 20260902204600 | 33 | 192 | 1.6 | 4.8 | 0.00 | 0.00 | 0.00 | 71 | 1010.5 |
| 20260902203058 | 35 | 160 | 0.0 | 9.7 | 0.00 | 0.00 | 0.00 | 67 | 1010.7 |
| 20260902201558 | 35 | 144 | 1.6 | 14.5 | 0.00 | 0.00 | 0.00 | 64 | 1011.0 |
| 20260902200048 | 35 | 144 | 3.2 | 8.0 | 0.00 | 0.00 | 0.00 | 66 | 1011.1 |
| 20260902194551 | 34 | 146 | 4.8 | 12.9 | 0.00 | 0.03 | 0.00 | 67 | 1011.3 |
| 20260902193038 | 34 | 231 | 3.2 | 16.1 | 0.00 | 0.03 | 0.00 | 68 | 1011.5 |
| 20260902191535 | 34 | 200 | 3.2 | 12.9 | 0.00 | 0.03 | 0.00 | 66 | 1011.6 |
| 20260902190031 | 35 | 249 | 6.4 | 16.1 | 0.00 | 0.03 | 0.00 | 66 | 1011.7 |
| 20260902184529 | 35 | 207 | 1.6 | 19.3 | 0.00 | 0.03 | 0.00 | 66 | 1011.9 |
| 20260902183022 | 34 | 113 | 4.8 | 20.9 | 0.00 | 0.03 | 0.00 | 67 | 1012.0 |
| 20260902181518 | 33 | 273 | 1.6 | 17.7 | 0.00 | 0.03 | 0.00 | 69 | 1012.3 |
| 20260902180013 | 33 | 281 | 3.2 | 19.3 | 0.00 | 0.05 | 0.00 | 71 | 1012.6 |
| 20260902174512 | 33 | 292 | 4.8 | 17.7 | 0.00 | 0.05 | 0.00 | 72 | 1012.8 |
| 20260902173008 | 32 | 231 | 4.8 | 20.9 | 0.00 | 0.05 | 0.00 | 74 | 1012.9 |
| 20260902171604 | 32 | 229 | 4.8 | 20.9 | 0.00 | 0.05 | 0.00 | 75 | 1013.1 |
| 20260902170058 | 32 | 265 | 11.3 | 24.1 | 0.00 | 0.05 | 0.00 | 76 | 1013.4 |
| 20260902164554 | 31 | 296 | 4.8 | 19.3 | 0.00 | 0.05 | 0.00 | 78 | 1013.6 |
| 20260902163050 | 31 | 292 | 4.8 | 20.9 | 0.00 | 0.05 | 0.00 | 80 | 1013.7 |
| 20260902161553 | 31 | 308 | 4.8 | 19.3 | 0.00 | 0.05 | 0.00 | 80 | 1013.7 |
| 20260902154545 | 30 | 253 | 9.7 | 22.5 | 0.00 | 0.05 | 0.00 | 84 | 1013.6 |
| 20260902153044 | 30 | 265 | 4.8 | 19.3 | 0.00 | 0.05 | 0.00 | 85 | 1013.5 |
| 20260902151540 | 29 | 250 | 3.2 | 11.3 | 0.00 | 0.05 | 0.00 | 86 | 1013.3 |
| 20260902150032 | 28 | 233 | 3.2 | 14.5 | 0.00 | 0.05 | 0.00 | 86 | 1013.3 |
| 20260902144527 | 27 | 254 | 3.2 | 6.4 | 0.00 | 0.05 | 0.00 | 86 | 1013.3 |
| 20260902143023 | 27 | 244 | 1.6 | 6.4 | 0.00 | 0.05 | 0.00 | 87 | 1013.2 |
| 20260902141519 | 27 | 198 | 0.0 | 1.6 | 0.00 | 0.05 | 0.00 | 86 | 1013.3 |
| 20260902140017 | 26 | 182 | 0.0 | 3.2 | 0.00 | 0.05 | 0.00 | 86 | 1013.2 |
| 20260902134524 | 26 | 211 | 0.0 | 1.6 | 0.00 | 0.05 | 0.00 | 86 | 1013.2 |
| 20260902133011 | 26 | 240 | 0.0 | 3.2 | 0.00 | 0.05 | 0.00 | 86 | 1013.2 |
| 20260902131507 | 26 | 178 | 0.0 | 3.2 | 0.00 | 0.05 | 0.00 | 85 | 1013.0 |
| 20260902130004 | 26 | 154 | 0.0 | 4.8 | 0.00 | 0.05 | 0.00 | 85 | 1012.8 |
| 20260902124502 | 26 | 222 | 0.0 | 3.2 | 0.00 | 0.05 | 0.00 | 85 | 1012.7 |
| 20260902123103 | 26 | 168 | 0.0 | 4.8 | 0.00 | 0.05 | 0.00 | 85 | 1012.6 |
| 20260902121601 | 26 | 209 | 0.0 | 6.4 | 0.00 | 0.05 | 0.00 | 86 | 1012.1 |
| 20260902120059 | 26 | 182 | 0.0 | 8.0 | 0.00 | 0.05 | 0.00 | 88 | 1012.2 |
| 20260902114554 | 26 | 169 | 3.2 | 9.7 | 0.00 | 0.05 | 0.00 | 92 | 1012.3 |
| 20260902113052 | 26 | 230 | 1.6 | 9.7 | 0.00 | 0.05 | 0.00 | 92 | 1011.9 |
| 20260902111548 | 26 | 257 | 0.0 | 6.4 | 0.00 | 0.05 | 0.00 | 92 | 1011.8 |
| 20260902110046 | 26 | 259 | 0.0 | 6.4 | 0.00 | 0.05 | 0.00 | 92 | 1011.8 |
| 20260902104612 | 26 | 229 | 0.0 | 6.4 | 0.00 | 0.05 | 0.00 | 92 | 1011.9 |
| 20260902103044 | 26 | 260 | 0.0 | 4.8 | 0.00 | 0.05 | 0.00 | 91 | 1012.0 |
| 20260902101544 | 26 | 173 | 1.6 | 14.5 | 0.00 | 0.05 | 0.00 | 92 | 1011.8 |
| 20260902100105 | 26 | 171 | 1.6 | 8.0 | 0.00 | 0.05 | 0.00 | 91 | 1011.6 |
| 20260902094543 | 26 | 240 | 0.0 | 4.8 | 0.00 | 0.05 | 0.00 | 91 | 1011.6 |
| 20260902093042 | 26 | 175 | 1.6 | 8.0 | 0.00 | 0.05 | 0.00 | 91 | 1011.7 |
| 20260902091542 | 26 | 223 | 0.0 | 4.8 | 0.00 | 0.05 | 0.00 | 91 | 1011.5 |
| 20260902090043 | 26 | 187 | 0.0 | 4.8 | 0.00 | 0.05 | 0.00 | 91 | 1011.4 |
| 20260902084539 | 26 | 225 | 0.0 | 4.8 | 0.00 | 0.05 | 0.00 | 90 | 1011.5 |
| 20260902083041 | 26 | 226 | 0.0 | 6.4 | 0.00 | 0.05 | 0.00 | 90 | 1011.5 |
| 20260902081558 | 27 | 243 | 3.2 | 9.7 | 0.00 | 0.05 | 0.00 | 90 | 1011.5 |
| 20260902080046 | 27 | 219 | 0.0 | 11.3 | 0.00 | 0.05 | 0.00 | 90 | 1011.7 |
| 20260902074539 | 26 | 213 | 0.0 | 8.0 | 0.00 | 0.05 | 0.00 | 90 | 1011.7 |
| 20260902073036 | 27 | 182 | 1.6 | 6.4 | 0.00 | 0.05 | 0.00 | 90 | 1011.7 |
| 20260902071538 | 27 | 236 | 1.6 | 6.4 | 0.00 | 0.05 | 0.00 | 90 | 1011.8 |
| 20260902070037 | 27 | 213 | 0.0 | 8.0 | 0.00 | 0.05 | 0.00 | 90 | 1011.7 |
| 20260902064535 | 27 | 252 | 1.6 | 6.4 | 0.00 | 0.05 | 0.00 | 89 | 1011.7 |
| 20260902063040 | 27 | 192 | 3.2 | 14.5 | 0.00 | 0.05 | 0.00 | 89 | 1011.7 |
| 20260902061534 | 27 | 206 | 1.6 | 8.0 | 0.00 | 0.05 | 0.00 | 89 | 1011.7 |
| 20260902060036 | 27 | 202 | 1.6 | 8.0 | 0.00 | 0.05 | 0.00 | 89 | 1011.7 |
| 20260902054535 | 27 | 245 | 1.6 | 8.0 | 0.00 | 0.05 | 0.00 | 88 | 1011.5 |
| 20260902053031 | 27 | 231 | 0.0 | 8.0 | 0.00 | 0.05 | 0.00 | 88 | 1011.7 |
| 20260902051528 | 27 | 267 | 0.0 | 6.4 | 0.00 | 0.05 | 0.00 | 87 | 1011.8 |
| 20260902050026 | 27 | 243 | 0.0 | 9.7 | 0.00 | 0.05 | 0.00 | 87 | 1011.8 |
| 20260902044538 | 27 | 192 | 1.6 | 8.0 | 0.00 | 0.05 | 0.05 | 87 | 1011.8 |
| 20260902043025 | 27 | 209 | 0.0 | 4.8 | 0.00 | 0.05 | 0.05 | 86 | 1011.8 |
| 20260902041526 | 27 | 241 | 0.0 | 4.8 | 0.00 | 0.05 | 0.05 | 87 | 1011.8 |
| 20260902040025 | 26 | 228 | 0.0 | 3.2 | 0.00 | 0.05 | 0.05 | 87 | 1011.9 |
| 20260902034524 | 26 | 250 | 0.0 | 4.8 | 0.00 | 0.05 | 0.05 | 87 | 1011.9 |
| 20260902033023 | 26 | 252 | 0.0 | 4.8 | 0.00 | 0.05 | 0.05 | 87 | 1011.9 |
| 20260902031535 | 26 | 258 | 0.0 | 1.6 | 0.00 | 0.05 | 0.05 | 86 | 1011.7 |
| 20260902030022 | 26 | 258 | 0.0 | 1.6 | 0.00 | 0.05 | 0.05 | 86 | 1011.4 |
| 20260902024522 | 26 | 216 | 0.0 | 3.2 | 0.00 | 0.05 | 0.05 | 86 | 1011.2 |
| 20260902023022 | 26 | 265 | 0.0 | 3.2 | 0.00 | 0.05 | 0.05 | 86 | 1011.1 |
| 20260902021530 | 26 | 239 | 0.0 | 4.8 | 0.00 | 0.05 | 0.05 | 86 | 1010.8 |
| 20260902020020 | 27 | 258 | 0.0 | 4.8 | 0.00 | 0.05 | 0.05 | 85 | 1010.8 |
| 20260902014541 | 27 | 267 | 0.0 | 8.0 | 0.00 | 0.05 | 0.05 | 85 | 1010.6 |
| 20260902013018 | 27 | 244 | 1.6 | 4.8 | 0.00 | 0.05 | 0.05 | 85 | 1010.4 |
| 20260902011518 | 27 | 236 | 0.0 | 4.8 | 0.00 | 0.05 | 0.05 | 84 | 1010.2 |
| 20260902010020 | 27 | 246 | 0.0 | 6.4 | 0.00 | 0.05 | 0.05 | 83 | 1010.1 |
| 20260902004521 | 27 | 247 | 4.8 | 9.7 | 0.00 | 0.05 | 0.05 | 82 | 1010.3 |
| 20260902003015 | 27 | 278 | 3.2 | 9.7 | 0.00 | 0.05 | 0.05 | 82 | 1010.5 |
| 20260902001514 | 28 | 332 | 1.6 | 11.3 | 0.00 | 0.05 | 0.05 | 81 | 1010.6 |
| 20260902000018 | 28 | 325 | 4.8 | 12.9 | 0.00 | 0.05 | 0.05 | 81 | 1010.6 |